Location: New Mesquite
(33.1168°N, 96.4336°W)
Time: 22:56:51
(UTC+00:00)

Meteor 1-27 Rocket - Pass Details

Date: 04 July 2022
Orbit: 828 x 911 km, 81.3° (Epoch: 07 August)

Event Time Altitude Azimuth Distance (km) Brightness Sun altitude
Rises 09:12:27 0° 349° (NNW) 3,415 7.4 -22.0°
Reaches altitude 10° 09:14:54 10° 347° (NNW) 2,466 6.6 -21.6°
Maximum altitude 09:20:26 69° 265° (W) 890 3.6 -20.9°
Enters shadow 09:22:40 36° 193° (SSW) 1,285 4.2 -20.6°
